Impacts METAR Board INFO
IDs:

KMDW - Chicago/Midway Intl, IL, US

Updated at: 0634 UTC 12 Dec 2017
Potential Impact None Slight Moderate High
Time11/18Z 11/19Z 11/20Z 11/21Z 11/22Z 11/23Z 12/00Z 12/01Z 12/02Z 12/03Z 12/04Z 12/05Z 12/06Z
VIS10 10 10 10 10 10 0.75 4 8 9 9 8 10
CIG110 85 150 120 120 160 11 6 46 17 18 21 33
CoverOVCBKNOVCOVCOVCOVCOVXOVCOVCOVCOVCOVCOVC
FltCatVFRVFRVFRVFRVFRVFRLIFRIFRVFRMVFRMVFRMVFRVFR
WX-------------SN BR-SN BR---------SN
WDir17012012014030360330320340330340340330
WSpd8 6 7 4 3 5 6 8 10 19 16 14 15
WGst-- -- -- -- -- -- -- -- -- -- -- 30 --
Raw hourly METARs
KMDW 111753Z 17008KT 10SM SCT075 BKN110 BKN150 OVC250 02/M04 A2975 RMK AO2 SLP085 T00221039 10022 21022 56052
KMDW 111853Z 12006KT 10SM BKN085 BKN150 BKN250 03/M03 A2971 RMK AO2 SLP072 T00331033
KMDW 111953Z 12007KT 10SM SCT085 BKN150 OVC250 04/M03 A2967 RMK AO2 SLP059 T00391033
KMDW 112053Z 14004KT 10SM SCT085 BKN120 OVC250 04/M03 A2967 RMK AO2 SLP058 T00391033 56027
KMDW 112153Z 03003KT 10SM FEW085 BKN120 OVC150 03/M03 A2969 RMK AO2 SLP066 T00331028
KMDW 112253Z 36005KT 10SM FEW075 SCT100 OVC160 03/M03 A2972 RMK AO2 SLP073 T00331028
KMDW 120004Z 33006KT 3/4SM R31C/P6000FT -SN BR VV011 01/00 A2975 RMK AO2 P0001 T00060000
KMDW 120053Z 32008KT 4SM -SN BR BKN006 BKN032 OVC055 01/01 A2977 RMK AO2 SLP091 SNINCR 1/1 P0003 T00110006
KMDW 120153Z 34010KT 8SM BKN046 OVC070 01/M01 A2978 RMK AO2 SNE21 SLP096 P0000 T00111006
KMDW 120253Z 33019KT 9SM BKN017 BKN030 OVC037 01/M02 A2982 RMK AO2 SLP109 60003 T00061017 53018
KMDW 120353Z 34016KT 9SM OVC018 01/M02 A2986 RMK AO2 PK WND 34027/0333 SNB37E46 SLP122 P0000 T00061022
KMDW 120453Z 34014G30KT 8SM OVC021 00/M03 A2988 RMK AO2 PK WND 36030/0444 SLP130 T00001033
KMDW 120553Z 33015KT 10SM -SN SCT025 OVC033 00/M04 A2990 RMK AO2 SNB53 SLP137 P0000 60003 T00001044 10011 20000 400441033 51028